Date String (YYYY-MM-DD hh:mm:ss) UTC,Instrument flags,absolute air pressure of the measurement (hPa),sample flow rate (lpm),inlet stack bypass flow (lpm),air temperature of the measurement (°C),ambient temperature measured by the external sensor (°C),aerosol sample conditioner tube jacket temperature (°C),OPC LED temperature (°C),internal box temperature (°C),relative humidity of the measurement (%),span deviation,mass concentration of particles derived from Lorenz-Mie calculation of OPC scattering (μg/m³),mass concentration of particles derived from Lorenz-Mie calculation of OPC scattering (μg/m³),mass concentration of particles derived from Lorenz-Mie calculation of OPC scattering (μg/m³)
DateTimeUTC,F1_M11,P_M11,Q1_M11,Q2_M11,T1_M11,T2_M11,T3_M11,T4_M11,T5_M11,U1_M11,ZSPAN_M11,X0_M11,X2_M11,X1_M11
2023-09-07 11:00:00,SystemResetWarning,0831.3,5.00,000.00,028.3,026.4,000.0,036.8,029.8,19.8,0002.4,0016.37,0005.97,0004.80
2023-09-07 11:01:00,SystemResetWarning,0831.2,5.01,000.00,028.3,026.6,000.0,036.8,029.8,19.8,0002.5,0017.18,0005.92,0004.79
2023-09-07 11:02:00,SystemResetWarning,0831.2,5.01,000.00,028.3,026.7,000.0,036.8,029.9,19.8,0002.7,0017.64,0005.89,0004.77
2023-09-07 11:03:00,SystemResetWarning,0831.2,5.00,000.00,028.3,026.8,000.0,036.8,029.9,19.9,0002.6,0017.73,0005.91,0004.75
2023-09-07 11:04:00,SystemResetWarning,0831.2,4.99,000.00,028.4,027.0,000.0,036.8,029.9,19.9,0002.8,0017.23,0005.81,0004.74
2023-09-07 11:05:00,SystemResetWarning,0831.2,5.00,000.00,028.4,027.1,000.0,036.8,030.0,19.9,0002.8,0016.96,0005.79,0004.74
2023-09-07 11:06:00,SystemResetWarning,0831.3,5.01,000.00,028.4,027.1,000.0,036.8,030.0,19.8,0002.5,0017.01,0005.81,0004.74
2023-09-07 11:07:00,SystemResetWarning,0831.3,5.01,000.00,028.4,027.2,000.0,036.8,030.1,19.7,0002.4,0017.28,0005.78,0004.73
2023-09-07 11:08:00,SystemResetWarning,0831.3,5.00,000.00,028.5,027.3,000.0,036.8,030.1,19.7,0002.3,0017.58,0005.76,0004.74
2023-09-07 11:09:00,SystemResetWarning,0831.3,5.00,000.00,028.5,027.3,000.0,036.8,030.1,19.5,0002.4,0017.46,0005.72,0004.72
2023-09-07 11:10:00,SystemResetWarning,0831.3,4.99,000.00,028.5,027.3,000.0,036.8,030.1,19.4,0002.2,0017.13,0005.70,0004.71
2023-09-07 11:11:00,SystemResetWarning,0831.3,4.99,000.00,028.5,027.3,000.0,036.8,030.1,19.5,0002.5,0016.87,0005.71,0004.72
2023-09-07 11:12:00,SystemResetWarning,0831.3,5.00,000.00,028.5,027.4,000.0,036.8,030.2,19.5,0002.4,0016.07,0005.74,0004.73
2023-09-07 11:13:00,SystemResetWarning,0831.3,5.01,000.00,028.6,027.4,000.0,036.8,030.2,19.5,0002.2,0016.50,0005.81,0004.77
2023-09-07 11:14:00,SystemResetWarning,0831.3,5.01,000.00,028.6,027.4,000.0,036.9,030.2,19.5,0002.0,0016.33,0005.81,0004.78
2023-09-07 11:15:00,SystemResetWarning,0831.3,5.00,000.00,028.6,027.4,000.0,036.9,030.2,19.0,0002.0,0017.60,0005.76,0004.71
2023-09-07 11:16:00,SystemResetWarning,0831.3,5.00,000.00,028.6,027.5,000.0,036.9,030.3,19.2,0001.6,0017.32,0005.66,0004.62
2023-09-07 11:17:00,SystemResetWarning,0831.3,5.00,000.00,028.7,027.5,000.0,036.9,030.3,19.2,0001.8,0016.54,0005.50,0004.54
2023-09-07 11:18:00,SystemResetWarning,0831.3,5.00,000.00,028.7,027.5,000.0,036.9,030.4,19.0,0001.7,0016.37,0005.43,0004.49
2023-09-07 11:19:00,SystemResetWarning,0831.3,5.00,000.00,028.7,027.6,000.0,036.9,030.4,19.1,0001.5,0015.73,0005.35,0004.43
2023-09-07 11:20:00,SystemResetWarning,0831.3,4.99,000.00,028.7,027.6,000.0,037.0,030.4,19.1,0001.6,0015.60,0005.35,0004.39
2023-09-07 11:21:00,SystemResetWarning,0831.3,5.00,000.00,028.8,027.6,000.0,037.0,030.5,19.1,0001.7,0015.87,0005.36,0004.37
2023-09-07 11:22:00,SystemResetWarning,0831.5,5.00,000.00,028.8,027.6,000.0,037.0,030.5,19.1,0001.5,0016.08,0005.33,0004.35
2023-09-07 11:23:00,SystemResetWarning,0831.5,4.99,000.00,028.8,027.6,000.0,037.0,030.5,19.0,0001.2,0015.96,0005.31,0004.33
2023-09-07 11:24:00,SystemResetWarning,0831.5,5.00,000.00,028.8,026.1,000.0,037.0,030.0,18.8,0001.2,0015.57,0005.30,0004.31
2023-09-07 11:25:00,SystemResetWarning,0831.5,5.00,000.00,028.6,024.8,000.0,036.9,029.7,18.9,0001.3,0015.37,0005.29,0004.31
2023-09-07 11:26:00,SystemResetWarning,0831.4,5.02,000.00,028.5,024.6,000.0,036.9,029.5,19.0,0001.6,0014.48,0005.38,0004.38
2023-09-07 11:27:00,SystemResetWarning,0831.4,5.00,000.00,028.4,024.8,000.0,036.8,029.4,19.1,0001.5,0015.03,0005.45,0004.46
2023-09-07 11:28:00,SystemResetWarning,0831.3,5.00,000.00,028.3,025.2,000.0,036.8,029.5,19.1,0001.3,0015.29,0005.53,0004.54
2023-09-07 11:29:00,SystemResetWarning,0831.4,5.00,000.00,028.3,025.5,000.0,036.8,029.6,19.2,0001.2,0014.56,0005.61,0004.61
2023-09-07 11:30:00,SystemResetWarning,0831.3,5.00,000.00,028.3,025.8,000.0,036.8,029.6,19.3,0001.4,0013.94,0005.71,0004.66
2023-09-07 11:31:00,SystemResetWarning,0831.4,5.00,000.00,028.3,026.1,000.0,036.8,029.7,19.2,0001.3,0014.04,0005.76,0004.71
2023-09-07 11:32:00,SystemResetWarning,0831.4,4.99,000.00,028.3,026.3,000.0,036.8,029.7,19.3,0001.3,0014.61,0005.75,0004.73
2023-09-07 11:33:00,SystemResetWarning,0831.5,5.00,000.00,028.3,026.5,000.0,036.8,029.8,19.2,0001.5,0014.71,0005.81,0004.76
2023-09-07 11:34:00,SystemResetWarning,0831.5,5.01,000.00,028.3,026.7,000.0,036.8,029.8,19.2,0001.7,0014.95,0005.84,0004.77
2023-09-07 11:35:00,SystemResetWarning,0831.5,5.01,000.00,028.3,026.8,000.0,036.8,029.9,19.0,0001.9,0014.62,0005.84,0004.78
2023-09-07 11:36:00,SystemResetWarning,0831.5,4.99,000.00,028.3,026.9,000.0,036.8,029.9,18.9,0002.1,0014.74,0005.87,0004.80
2023-09-07 11:37:00,SystemResetWarning,0831.5,5.00,000.00,028.4,027.0,000.0,036.8,030.0,18.9,0001.9,0014.51,0005.88,0004.81
2023-09-07 11:38:00,SystemResetWarning,0831.5,5.00,000.00,028.4,027.0,000.0,036.8,030.0,18.7,0002.0,0013.98,0005.91,0004.81
2023-09-07 11:39:00,SystemResetWarning,0831.5,5.00,000.00,028.4,027.1,000.0,036.8,030.0,18.7,0002.1,0013.87,0005.96,0004.81
2023-09-07 11:40:00,SystemResetWarning,0831.4,4.99,000.00,028.4,027.1,000.0,036.8,030.1,19.0,0002.3,0014.72,0005.99,0004.80
2023-09-07 11:41:00,SystemResetWarning,0831.4,5.00,000.00,028.4,027.2,000.0,036.8,030.1,19.1,0002.6,0016.78,0005.99,0004.80
2023-09-07 11:42:00,SystemResetWarning,0831.4,5.00,000.00,028.5,027.2,000.0,036.8,030.1,19.2,0002.6,0018.58,0005.94,0004.80
2023-09-07 11:43:00,SystemResetWarning,0831.4,5.00,000.00,028.5,027.2,000.0,036.8,030.1,19.3,0002.7,0019.05,0005.97,0004.81
2023-09-07 11:44:00,SystemResetWarning,0831.5,5.00,000.00,028.5,027.3,000.0,036.8,030.1,19.3,0002.6,0019.16,0005.95,0004.80
2023-09-07 11:45:00,SystemResetWarning,0831.5,5.00,000.00,028.5,027.3,000.0,036.8,030.2,19.2,0002.7,0018.98,0005.91,0004.79
2023-09-07 11:46:00,SystemResetWarning,0831.5,5.00,000.00,028.6,027.4,000.0,036.8,030.2,19.2,0002.7,0018.33,0005.92,0004.78
2023-09-07 11:47:00,SystemResetWarning,0831.5,5.00,000.00,028.6,027.4,000.0,036.8,030.2,19.2,0002.9,0018.38,0005.91,0004.75
2023-09-07 11:48:00,SystemResetWarning,0831.6,5.00,000.00,028.6,027.4,000.0,036.8,030.2,19.2,0003.1,0018.40,0005.88,0004.74
2023-09-07 11:49:00,SystemResetWarning,0831.6,5.00,000.00,028.6,027.5,000.0,036.9,030.3,19.3,0003.3,0018.30,0005.82,0004.72
2023-09-07 11:50:00,SystemResetWarning,0831.6,5.00,000.00,028.6,027.5,000.0,036.9,030.3,19.2,0003.2,0018.45,0005.77,0004.71
2023-09-07 11:51:00,SystemResetWarning,0831.6,5.00,000.00,028.7,027.5,000.0,036.9,030.3,19.2,0003.2,0017.94,0005.76,0004.70
2023-09-07 11:52:00,SystemResetWarning,0831.6,5.00,000.00,028.7,027.5,000.0,036.9,030.4,19.2,0003.0,0016.09,0005.74,0004.70
2023-09-07 11:53:00,SystemResetWarning,0831.6,5.00,000.00,028.7,027.6,000.0,036.9,030.4,19.2,0002.7,0014.32,0005.78,0004.69
2023-09-07 11:54:00,SystemResetWarning,0831.5,5.00,000.00,028.7,027.6,000.0,036.9,030.4,19.2,0002.6,0014.37,0005.77,0004.67
2023-09-07 11:55:00,SystemResetWarning,0831.6,5.00,000.00,028.7,027.6,000.0,037.0,030.4,19.1,0002.8,0014.69,0005.72,0004.67
2023-09-07 11:56:00,SystemResetWarning,0831.6,4.99,000.00,028.8,027.6,000.0,037.0,030.4,19.1,0002.7,0014.30,0005.71,0004.68
2023-09-07 11:57:00,SystemResetWarning,0831.7,4.99,000.00,028.8,027.6,000.0,037.0,030.4,19.1,0002.4,0014.79,0005.69,0004.69
2023-09-07 11:58:00,SystemResetWarning,0831.7,5.01,000.00,028.8,027.6,000.0,037.0,030.4,18.9,0002.1,0014.82,0005.61,0004.69
2023-09-07 11:59:00,SystemResetWarning,0831.7,5.01,000.00,028.8,027.6,000.0,037.0,030.4,18.7,0002.1,0014.80,0005.64,0004.69
